Tracking 30509 objects as of 18-May-2025
HD Live streaming from Space Station
objects crossing your sky now

FENGYUN 1C DEB

Track FENGYUN 1C DEB now!
10-day predictions


NORAD ID: 30391
Int'l Code: 1999-025ADE
Perigee: 794.3 km
Apogee: 902.6 km
Inclination: 98.8 °
Period: 101.7 minutes
Semi major axis: 7219 km
RCS: 0.0444 m2 (small)
Launch date: May 10, 1999
Source: People's Republic of China (PRC)
Launch site: Taiyaun Space Center, China (TSC)

Note: This is SATELLITE DEBRIS
Your satellite tracking list
Your tracking list is empty




NASA's NSSDC Master Catalog

Two Line Element Set (TLE):
1 30391U 99025ADE 25138.12301647  .00002791  00000-0  14170-2 0  9998
2 30391  98.7944 186.9648 0075008 137.6279 242.7974 14.15289415939473
Source of the keplerian elements: AFSPC